Time,TemperatureF,DewpointF,PressureIn,WindDirection,WindDirectionDegrees,WindSpeedMPH,WindSpeedGustMPH,Humidity,HourlyPrecipIn,Conditions,Clouds,dailyrainin,SoftwareType,DateUTC
2013-03-01 00:00:00,66.0,56.7,29.97,WNW,290,2.0,2.0,72,0.00,,,0.00,Wunderground v.1.15,2013-03-01 05:00:00,
2013-03-01 00:01:00,66.0,56.7,29.97,WSW,249,0.0,2.0,72,0.00,,,0.00,Wunderground v.1.15,2013-03-01 05:01:00,
2013-03-01 00:05:00,65.9,56.6,29.96,West,262,0.0,2.0,72,0.00,,,0.00,Wunderground v.1.15,2013-03-01 05:05:00,
2013-03-01 00:06:00,65.9,57.0,29.96,WNW,285,0.0,2.0,73,0.00,,,0.00,Wunderground v.1.15,2013-03-01 05:06:00,
2013-03-01 00:11:00,65.8,56.9,29.96,West,273,0.0,1.0,73,0.00,,,0.00,Wunderground v.1.15,2013-03-01 05:11:00,
2013-03-01 00:17:00,65.8,57.3,29.96,West,281,1.0,2.0,74,0.00,,,0.00,Wunderground v.1.15,2013-03-01 05:17:00,
2013-03-01 00:22:00,65.7,56.8,29.96,NW,305,0.0,2.0,73,0.00,,,0.00,Wunderground v.1.15,2013-03-01 05:22:00,
2013-03-01 00:27:00,65.8,56.9,29.96,WNW,285,0.0,3.0,73,0.00,,,0.00,Wunderground v.1.15,2013-03-01 05:27:00,
2013-03-01 00:33:00,65.7,56.4,29.95,WNW,294,2.0,2.0,72,0.00,,,0.00,Wunderground v.1.15,2013-03-01 05:33:00,
2013-03-01 00:39:00,65.6,56.7,29.95,West,276,0.0,2.0,73,0.00,,,0.00,Wunderground v.1.15,2013-03-01 05:39:00,
2013-03-01 00:44:00,65.6,56.7,29.95,NNW,327,0.0,2.0,73,0.00,,,0.00,Wunderground v.1.15,2013-03-01 05:44:00,
2013-03-01 00:49:00,65.5,56.2,29.95,WNW,284,1.0,2.0,72,0.00,,,0.00,Wunderground v.1.15,2013-03-01 05:49:00,
2013-03-01 00:55:00,65.4,56.1,29.95,NW,316,0.0,1.0,72,0.00,,,0.00,Wunderground v.1.15,2013-03-01 05:55:00,
2013-03-01 01:00:00,65.4,56.1,29.96,West,281,1.0,1.0,72,0.00,,,0.00,Wunderground v.1.15,2013-03-01 06:00:00,
2013-03-01 01:06:00,65.4,56.5,29.95,WNW,300,1.0,1.0,73,0.00,,,0.00,Wunderground v.1.15,2013-03-01 06:06:00,
2013-03-01 01:12:00,65.3,56.4,29.95,WNW,302,0.0,0.0,73,0.00,,,0.00,Wunderground v.1.15,2013-03-01 06:12:00,
2013-03-01 01:17:00,65.2,56.3,29.95,WNW,293,0.0,2.0,73,0.00,,,0.00,Wunderground v.1.15,2013-03-01 06:17:00,
2013-03-01 01:22:00,65.3,56.8,29.95,WNW,301,0.0,0.0,74,0.00,,,0.00,Wunderground v.1.15,2013-03-01 06:22:00,
2013-03-01 01:27:00,65.3,56.8,29.95,WNW,293,0.0,2.0,74,0.00,,,0.00,Wunderground v.1.15,2013-03-01 06:27:00,
2013-03-01 01:32:00,65.2,56.3,29.95,West,278,0.0,0.0,73,0.00,,,0.00,Wunderground v.1.15,2013-03-01 06:32:00,
2013-03-01 01:38:00,65.1,56.2,29.95,NW,307,0.0,2.0,73,0.00,,,0.00,Wunderground v.1.15,2013-03-01 06:38:00,
2013-03-01 01:43:00,65.0,55.8,29.95,WNW,285,1.0,2.0,72,0.00,,,0.00,Wunderground v.1.15,2013-03-01 06:43:00,
2013-03-01 01:49:00,65.0,56.1,29.95,WSW,248,4.0,4.0,73,0.00,,,0.00,Wunderground v.1.15,2013-03-01 06:49:00,
2013-03-01 01:54:00,65.0,56.1,29.94,WSW,257,1.0,1.0,73,0.00,,,0.00,Wunderground v.1.15,2013-03-01 06:54:00,
2013-03-01 02:00:00,65.0,56.5,29.95,West,268,0.0,0.0,74,0.00,,,0.00,Wunderground v.1.15,2013-03-01 07:00:00,
2013-03-01 02:05:00,64.9,56.0,29.94,West,281,0.0,2.0,73,0.00,,,0.00,Wunderground v.1.15,2013-03-01 07:05:00,
2013-03-01 02:10:00,64.9,56.0,29.94,North,352,1.0,1.0,73,0.00,,,0.00,Wunderground v.1.15,2013-03-01 07:10:00,
2013-03-01 02:15:00,64.8,55.6,29.94,NW,304,3.0,4.0,72,0.00,,,0.00,Wunderground v.1.15,2013-03-01 07:15:00,
2013-03-01 02:20:00,64.7,55.5,29.94,NW,314,2.0,2.0,72,0.00,,,0.00,Wunderground v.1.15,2013-03-01 07:20:00,
2013-03-01 02:25:00,64.7,55.5,29.94,WNW,288,1.0,2.0,72,0.00,,,0.00,Wunderground v.1.15,2013-03-01 07:25:00,
2013-03-01 02:30:00,64.7,55.5,29.94,WNW,290,1.0,2.0,72,0.00,,,0.00,Wunderground v.1.15,2013-03-01 07:30:00,
2013-03-01 02:35:00,64.8,55.6,29.94,NW,316,0.0,3.0,72,0.00,,,0.00,Wunderground v.1.15,2013-03-01 07:35:00,
2013-03-01 02:40:00,64.7,55.8,29.94,NW,305,0.0,1.0,73,0.00,,,0.00,Wunderground v.1.15,2013-03-01 07:40:00,
2013-03-01 02:45:00,64.6,55.7,29.94,North,11,0.0,2.0,73,0.00,,,0.00,Wunderground v.1.15,2013-03-01 07:45:00,
2013-03-01 02:50:00,64.6,55.7,29.94,WNW,283,1.0,2.0,73,0.00,,,0.00,Wunderground v.1.15,2013-03-01 07:50:00,
2013-03-01 02:55:00,64.5,55.7,29.93,WNW,298,0.0,2.0,73,0.00,,,0.00,Wunderground v.1.15,2013-03-01 07:55:00,
2013-03-01 03:00:00,64.4,55.6,29.93,NW,305,0.0,0.0,73,0.00,,,0.00,Wunderground v.1.15,2013-03-01 08:00:00,
2013-03-01 03:05:00,64.3,55.8,29.93,WNW,288,0.0,2.0,74,0.00,,,0.00,Wunderground v.1.15,2013-03-01 08:05:00,
2013-03-01 03:10:00,64.3,55.8,29.94,West,278,3.0,3.0,74,0.00,,,0.00,Wunderground v.1.15,2013-03-01 08:10:00,
2013-03-01 03:15:00,64.3,56.2,29.94,WNW,285,1.0,5.0,75,0.00,,,0.00,Wunderground v.1.15,2013-03-01 08:15:00,
2013-03-01 03:20:00,64.3,56.2,29.94,NW,322,0.0,1.0,75,0.00,,,0.00,Wunderground v.1.15,2013-03-01 08:20:00,
2013-03-01 03:25:00,64.3,55.8,29.94,WSW,256,1.0,4.0,74,0.00,,,0.00,Wunderground v.1.15,2013-03-01 08:25:00,
2013-03-01 03:30:00,64.2,56.1,29.94,West,267,1.0,1.0,75,0.00,,,0.00,Wunderground v.1.15,2013-03-01 08:30:00,
2013-03-01 03:35:00,64.2,56.5,29.94,West,278,1.0,2.0,76,0.00,,,0.00,Wunderground v.1.15,2013-03-01 08:35:00,
2013-03-01 03:40:00,64.1,56.4,29.94,West,277,3.0,3.0,76,0.00,,,0.00,Wunderground v.1.15,2013-03-01 08:40:00,
2013-03-01 03:45:00,64.1,56.4,29.95,West,266,0.0,3.0,76,0.00,,,0.00,Wunderground v.1.15,2013-03-01 08:45:00,
2013-03-01 03:50:00,64.0,56.3,29.95,WNW,283,2.0,3.0,76,0.00,,,0.00,Wunderground v.1.15,2013-03-01 08:50:00,
2013-03-01 03:55:00,64.0,56.6,29.95,WNW,298,0.0,4.0,77,0.00,,,0.00,Wunderground v.1.15,2013-03-01 08:55:00,
2013-03-01 04:01:00,63.9,56.5,29.95,West,274,2.0,2.0,77,0.00,,,0.00,Wunderground v.1.15,2013-03-01 09:01:00,
2013-03-01 04:06:00,63.9,56.2,29.95,West,281,2.0,3.0,76,0.00,,,0.00,Wunderground v.1.15,2013-03-01 09:06:00,
2013-03-01 04:11:00,63.9,56.2,29.95,WSW,255,2.0,4.0,76,0.00,,,0.00,Wunderground v.1.15,2013-03-01 09:11:00,
2013-03-01 04:16:00,63.6,56.6,29.95,WNW,288,0.0,4.0,78,0.00,,,0.00,Wunderground v.1.15,2013-03-01 09:16:00,
2013-03-01 04:21:00,63.4,57.1,29.95,WNW,290,0.0,2.0,80,0.00,,,0.00,Wunderground v.1.15,2013-03-01 09:21:00,
2013-03-01 04:26:00,63.1,56.5,29.94,WNW,298,1.0,4.0,79,0.00,,,0.00,Wunderground v.1.15,2013-03-01 09:26:00,
2013-03-01 04:31:00,62.9,56.6,29.94,West,262,0.0,2.0,80,0.00,,,0.00,Wunderground v.1.15,2013-03-01 09:31:00,
2013-03-01 04:36:00,62.8,56.9,29.95,WNW,295,0.0,2.0,81,0.00,,,0.00,Wunderground v.1.15,2013-03-01 09:36:00,
2013-03-01 04:41:00,62.6,57.0,29.95,West,280,0.0,1.0,82,0.00,,,0.00,Wunderground v.1.15,2013-03-01 09:41:00,
2013-03-01 04:46:00,62.6,57.0,29.95,West,270,2.0,3.0,82,0.00,,,0.00,Wunderground v.1.15,2013-03-01 09:46:00,
2013-03-01 04:51:00,62.4,56.8,29.95,West,278,1.0,2.0,82,0.00,,,0.00,Wunderground v.1.15,2013-03-01 09:51:00,
2013-03-01 04:56:00,62.3,57.1,29.95,West,281,0.0,2.0,83,0.00,,,0.00,Wunderground v.1.15,2013-03-01 09:56:00,
2013-03-01 05:01:00,62.3,57.1,29.95,West,275,0.0,1.0,83,0.00,,,0.00,Wunderground v.1.15,2013-03-01 10:01:00,
2013-03-01 05:06:00,62.2,57.3,29.95,West,276,0.0,1.0,84,0.00,,,0.00,Wunderground v.1.15,2013-03-01 10:06:00,
2013-03-01 05:11:00,62.1,56.9,29.94,NNE,27,0.0,1.0,83,0.00,,,0.00,Wunderground v.1.15,2013-03-01 10:11:00,
2013-03-01 05:16:00,61.9,56.3,29.94,NW,309,0.0,2.0,82,0.00,,,0.00,Wunderground v.1.15,2013-03-01 10:16:00,
2013-03-01 05:21:00,61.9,56.3,29.94,NNW,344,0.0,1.0,82,0.00,,,0.00,Wunderground v.1.15,2013-03-01 10:21:00,
2013-03-01 05:26:00,61.8,56.6,29.94,West,264,0.0,1.0,83,0.00,,,0.00,Wunderground v.1.15,2013-03-01 10:26:00,
2013-03-01 05:31:00,61.9,56.7,29.94,North,6,0.0,0.0,83,0.00,,,0.00,Wunderground v.1.15,2013-03-01 10:31:00,
2013-03-01 05:36:00,61.7,56.5,29.94,NNW,345,1.0,2.0,83,0.00,,,0.00,Wunderground v.1.15,2013-03-01 10:36:00,
2013-03-01 05:41:00,61.7,56.5,29.94,WNW,300,0.0,0.0,83,0.00,,,0.00,Wunderground v.1.15,2013-03-01 10:41:00,
2013-03-01 05:46:00,61.7,56.5,29.94,NNW,342,0.0,2.0,83,0.00,,,0.00,Wunderground v.1.15,2013-03-01 10:46:00,
2013-03-01 05:51:00,61.7,56.5,29.95,NNW,328,0.0,1.0,83,0.00,,,0.00,Wunderground v.1.15,2013-03-01 10:51:00,
2013-03-01 05:56:00,61.7,56.5,29.95,NW,319,0.0,1.0,83,0.00,,,0.00,Wunderground v.1.15,2013-03-01 10:56:00,
2013-03-01 06:01:00,61.7,56.5,29.95,West,278,0.0,1.0,83,0.00,,,0.00,Wunderground v.1.15,2013-03-01 11:01:00,
2013-03-01 06:06:00,61.7,56.5,29.95,NNE,27,0.0,2.0,83,0.00,,,0.00,Wunderground v.1.15,2013-03-01 11:06:00,
2013-03-01 06:11:00,61.6,56.4,29.95,NNW,347,0.0,3.0,83,0.00,,,0.00,Wunderground v.1.15,2013-03-01 11:11:00,
2013-03-01 06:16:00,61.7,56.8,29.95,WNW,288,0.0,3.0,84,0.00,,,0.00,Wunderground v.1.15,2013-03-01 11:16:00,
2013-03-01 06:21:00,61.8,56.6,29.95,WNW,283,0.0,2.0,83,0.00,,,0.00,Wunderground v.1.15,2013-03-01 11:21:00,
2013-03-01 06:26:00,61.8,56.6,29.96,NNW,330,0.0,2.0,83,0.00,,,0.00,Wunderground v.1.15,2013-03-01 11:26:00,
2013-03-01 06:31:00,61.8,56.6,29.95,NW,316,0.0,0.0,83,0.00,,,0.00,Wunderground v.1.15,2013-03-01 11:31:00,
2013-03-01 06:36:00,61.8,56.6,29.96,West,273,0.0,0.0,83,0.00,,,0.00,Wunderground v.1.15,2013-03-01 11:36:00,
2013-03-01 06:41:00,61.7,56.5,29.95,NNW,345,0.0,0.0,83,0.00,,,0.00,Wunderground v.1.15,2013-03-01 11:41:00,
2013-03-01 06:46:00,61.8,56.6,29.96,WNW,298,0.0,0.0,83,0.00,,,0.00,Wunderground v.1.15,2013-03-01 11:46:00,
2013-03-01 06:51:00,61.7,56.5,29.96,WNW,298,0.0,0.0,83,0.00,,,0.00,Wunderground v.1.15,2013-03-01 11:51:00,
2013-03-01 06:56:00,61.8,56.9,29.96,West,281,0.0,1.0,84,0.00,,,0.00,Wunderground v.1.15,2013-03-01 11:56:00,
2013-03-01 07:01:00,61.8,56.6,29.96,WNW,288,0.0,0.0,83,0.00,,,0.00,Wunderground v.1.15,2013-03-01 12:01:00,
2013-03-01 07:06:00,61.8,56.2,29.96,NW,312,0.0,0.0,82,0.00,,,0.00,Wunderground v.1.15,2013-03-01 12:06:00,
2013-03-01 07:11:00,61.8,56.6,29.96,North,356,0.0,1.0,83,0.00,,,0.00,Wunderground v.1.15,2013-03-01 12:11:00,
2013-03-01 07:16:00,61.8,56.2,29.97,NNW,330,0.0,1.0,82,0.00,,,0.00,Wunderground v.1.15,2013-03-01 12:16:00,
2013-03-01 07:21:00,61.8,56.2,29.97,North,358,0.0,1.0,82,0.00,,,0.00,Wunderground v.1.15,2013-03-01 12:21:00,
2013-03-01 07:26:00,61.8,56.2,29.97,NW,312,0.0,2.0,82,0.00,,,0.00,Wunderground v.1.15,2013-03-01 12:26:00,
2013-03-01 07:31:00,61.9,56.3,29.97,NW,311,0.0,2.0,82,0.00,,,0.00,Wunderground v.1.15,2013-03-01 12:31:00,
2013-03-01 07:36:00,62.1,56.5,29.98,NW,323,4.0,4.0,82,0.00,,,0.00,Wunderground v.1.15,2013-03-01 12:36:00,
2013-03-01 07:41:00,62.1,56.2,29.98,NNE,12,1.0,3.0,81,0.00,,,0.00,Wunderground v.1.15,2013-03-01 12:41:00,
2013-03-01 07:46:00,62.1,56.2,29.98,WNW,298,0.0,5.0,81,0.00,,,0.00,Wunderground v.1.15,2013-03-01 12:46:00,
2013-03-01 07:51:00,62.2,56.3,29.98,WNW,302,2.0,2.0,81,0.00,,,0.00,Wunderground v.1.15,2013-03-01 12:51:00,
2013-03-01 07:56:00,62.3,56.4,29.98,NNE,30,0.0,4.0,81,0.00,,,0.00,Wunderground v.1.15,2013-03-01 12:56:00,
2013-03-01 08:01:00,62.3,56.4,29.98,NNE,25,0.0,3.0,81,0.00,,,0.00,Wunderground v.1.15,2013-03-01 13:01:00,
2013-03-01 08:07:00,62.3,56.7,29.99,NE,51,0.0,8.0,82,0.00,,,0.00,Wunderground v.1.15,2013-03-01 13:07:00,
2013-03-01 08:12:00,62.2,56.0,29.99,NE,37,2.0,8.0,80,0.00,,,0.00,Wunderground v.1.15,2013-03-01 13:12:00,
2013-03-01 08:17:00,62.1,55.2,29.98,ESE,103,0.0,8.0,78,0.00,,,0.00,Wunderground v.1.15,2013-03-01 13:17:00,
2013-03-01 08:22:00,62.1,54.8,29.98,WNW,298,1.0,6.0,77,0.00,,,0.00,Wunderground v.1.15,2013-03-01 13:22:00,
2013-03-01 08:27:00,62.1,54.8,29.98,NNE,18,0.0,6.0,77,0.00,,,0.00,Wunderground v.1.15,2013-03-01 13:27:00,
2013-03-01 08:32:00,62.3,54.6,29.98,NE,40,3.0,6.0,76,0.00,,,0.00,Wunderground v.1.15,2013-03-01 13:32:00,
2013-03-01 08:37:00,62.3,54.6,29.98,North,5,1.0,6.0,76,0.00,,,0.00,Wunderground v.1.15,2013-03-01 13:37:00,
2013-03-01 08:42:00,62.4,54.7,29.98,NE,46,0.0,2.0,76,0.00,,,0.00,Wunderground v.1.15,2013-03-01 13:42:00,
2013-03-01 08:47:00,62.5,54.5,29.98,North,9,0.0,4.0,75,0.00,,,0.00,Wunderground v.1.15,2013-03-01 13:47:00,
2013-03-01 08:52:00,62.5,54.5,29.98,NE,49,2.0,3.0,75,0.00,,,0.00,Wunderground v.1.15,2013-03-01 13:52:00,
2013-03-01 08:57:00,62.5,54.5,29.98,NE,37,2.0,3.0,75,0.00,,,0.00,Wunderground v.1.15,2013-03-01 13:57:00,
2013-03-01 09:02:00,62.6,54.2,29.99,WNW,285,1.0,4.0,74,0.00,,,0.00,Wunderground v.1.15,2013-03-01 14:02:00,
2013-03-01 09:07:00,62.6,54.2,29.99,NNW,334,2.0,4.0,74,0.00,,,0.00,Wunderground v.1.15,2013-03-01 14:07:00,
2013-03-01 09:12:00,62.6,54.2,29.98,WNW,298,1.0,2.0,74,0.00,,,0.00,Wunderground v.1.15,2013-03-01 14:12:00,
2013-03-01 09:17:00,62.7,54.3,29.98,NNE,25,3.0,3.0,74,0.00,,,0.00,Wunderground v.1.15,2013-03-01 14:17:00,
2013-03-01 09:22:00,62.9,54.5,29.99,NNE,26,0.0,2.0,74,0.00,,,0.00,Wunderground v.1.15,2013-03-01 14:22:00,
2013-03-01 09:27:00,63.0,54.2,29.98,NNE,19,1.0,4.0,73,0.00,,,0.00,Wunderground v.1.15,2013-03-01 14:27:00,
2013-03-01 09:32:00,62.9,54.5,29.99,NE,39,2.0,2.0,74,0.00,,,0.00,Wunderground v.1.15,2013-03-01 14:32:00,
2013-03-01 09:37:00,63.0,54.6,29.99,NW,314,2.0,3.0,74,0.00,,,0.00,Wunderground v.1.15,2013-03-01 14:37:00,
2013-03-01 09:42:00,62.9,53.7,29.98,ENE,70,1.0,2.0,72,0.00,,,0.00,Wunderground v.1.15,2013-03-01 14:42:00,
2013-03-01 09:47:00,62.9,53.4,29.99,NNE,18,0.0,3.0,71,0.00,,,0.00,Wunderground v.1.15,2013-03-01 14:47:00,
2013-03-01 09:52:00,62.9,53.7,29.99,NNE,27,0.0,4.0,72,0.00,,,0.00,Wunderground v.1.15,2013-03-01 14:52:00,
2013-03-01 09:57:00,62.9,53.4,29.99,NNE,16,1.0,6.0,71,0.00,,,0.00,Wunderground v.1.15,2013-03-01 14:57:00,
2013-03-01 10:02:00,62.9,54.1,29.99,NNE,25,0.0,3.0,73,0.00,,,0.00,Wunderground v.1.15,2013-03-01 15:02:00,
2013-03-01 10:07:00,63.0,53.4,29.99,NNE,30,1.0,4.0,71,0.00,,,0.00,Wunderground v.1.15,2013-03-01 15:07:00,
2013-03-01 10:12:00,63.2,54.0,29.99,NNE,16,2.0,2.0,72,0.00,,,0.00,Wunderground v.1.15,2013-03-01 15:12:00,
2013-03-01 10:17:00,63.5,54.3,29.99,ESE,111,1.0,5.0,72,0.00,,,0.00,Wunderground v.1.15,2013-03-01 15:17:00,
2013-03-01 10:22:00,64.1,55.3,29.99,NE,41,0.0,4.0,73,0.00,,,0.00,Wunderground v.1.15,2013-03-01 15:22:00,
2013-03-01 10:27:00,64.3,53.9,30.00,West,259,5.0,5.0,69,0.00,,,0.00,Wunderground v.1.15,2013-03-01 15:27:00,
2013-03-01 10:32:00,64.0,52.8,30.00,NE,37,2.0,9.0,67,0.00,,,0.00,Wunderground v.1.15,2013-03-01 15:32:00,
2013-03-01 10:37:00,63.9,53.1,30.00,NW,319,1.0,9.0,68,0.00,,,0.00,Wunderground v.1.15,2013-03-01 15:37:00,
2013-03-01 10:42:00,63.9,53.1,30.00,WSW,237,0.0,6.0,68,0.00,,,0.00,Wunderground v.1.15,2013-03-01 15:42:00,
2013-03-01 10:47:00,63.9,53.5,30.01,WNW,300,3.0,8.0,69,0.00,,,0.00,Wunderground v.1.15,2013-03-01 15:47:00,
2013-03-01 10:52:00,63.8,53.8,30.01,West,277,2.0,9.0,70,0.00,,,0.00,Wunderground v.1.15,2013-03-01 15:52:00,
2013-03-01 10:57:00,64.0,54.0,30.00,WNW,285,2.0,9.0,70,0.00,,,0.00,Wunderground v.1.15,2013-03-01 15:57:00,
2013-03-01 11:02:00,64.3,53.5,30.00,NE,49,4.0,5.0,68,0.00,,,0.00,Wunderground v.1.15,2013-03-01 16:02:00,
2013-03-01 11:07:00,64.5,53.3,30.00,North,3,1.0,9.0,67,0.00,,,0.00,Wunderground v.1.15,2013-03-01 16:07:00,
2013-03-01 11:12:00,64.9,54.1,30.00,NW,316,0.0,4.0,68,0.00,,,0.00,Wunderground v.1.15,2013-03-01 16:12:00,
2013-03-01 11:17:00,64.9,53.3,30.00,NW,322,1.0,5.0,66,0.00,,,0.00,Wunderground v.1.15,2013-03-01 16:17:00,
2013-03-01 11:22:00,64.9,53.3,30.00,NW,312,1.0,8.0,66,0.00,,,0.00,Wunderground v.1.15,2013-03-01 16:22:00,
2013-03-01 11:27:00,65.4,53.3,30.00,NE,38,1.0,8.0,65,0.00,,,0.00,Wunderground v.1.15,2013-03-01 16:27:00,
2013-03-01 11:32:00,65.5,53.0,30.00,WNW,295,1.0,5.0,64,0.00,,,0.00,Wunderground v.1.15,2013-03-01 16:32:00,
2013-03-01 11:37:00,65.6,53.9,30.00,ESE,117,0.0,6.0,66,0.00,,,0.00,Wunderground v.1.15,2013-03-01 16:37:00,
2013-03-01 11:42:00,65.5,54.2,30.00,West,271,0.0,3.0,67,0.00,,,0.00,Wunderground v.1.15,2013-03-01 16:42:00,
2013-03-01 11:47:00,65.1,53.5,30.00,WSW,257,1.0,4.0,66,0.00,,,0.00,Wunderground v.1.15,2013-03-01 16:47:00,
2013-03-01 11:52:00,64.7,53.5,30.00,NNE,15,3.0,6.0,67,0.00,,,0.00,Wunderground v.1.15,2013-03-01 16:52:00,
2013-03-01 11:57:00,64.7,53.9,29.99,WNW,298,1.0,6.0,68,0.00,,,0.00,Wunderground v.1.15,2013-03-01 16:57:00,
2013-03-01 12:02:00,64.6,53.8,29.99,NNE,16,0.0,5.0,68,0.00,,,0.00,Wunderground v.1.15,2013-03-01 17:02:00,
2013-03-01 12:07:00,64.7,54.3,29.98,NNW,336,4.0,6.0,69,0.00,,,0.00,Wunderground v.1.15,2013-03-01 17:07:00,
2013-03-01 12:12:00,64.9,53.7,29.98,NNE,15,0.0,4.0,67,0.00,,,0.00,Wunderground v.1.15,2013-03-01 17:12:00,
2013-03-01 12:17:00,65.2,54.4,29.97,NNW,348,1.0,4.0,68,0.00,,,0.00,Wunderground v.1.15,2013-03-01 17:17:00,
2013-03-01 12:22:00,65.5,54.2,29.98,WNW,291,0.0,4.0,67,0.00,,,0.00,Wunderground v.1.15,2013-03-01 17:22:00,
2013-03-01 12:27:00,65.4,53.7,29.98,NW,321,2.0,4.0,66,0.00,,,0.00,Wunderground v.1.15,2013-03-01 17:27:00,
2013-03-01 12:33:00,65.2,54.0,29.98,WNW,294,2.0,4.0,67,0.00,,,0.00,Wunderground v.1.15,2013-03-01 17:33:00,
2013-03-01 12:38:00,65.3,54.5,29.98,West,262,0.0,5.0,68,0.00,,,0.00,Wunderground v.1.15,2013-03-01 17:38:00,
2013-03-01 12:43:00,65.4,54.6,29.98,West,278,2.0,6.0,68,0.00,,,0.00,Wunderground v.1.15,2013-03-01 17:43:00,
2013-03-01 12:48:00,65.2,54.0,29.98,NNE,16,2.0,6.0,67,0.00,,,0.00,Wunderground v.1.15,2013-03-01 17:48:00,
2013-03-01 12:53:00,65.1,53.9,29.98,West,273,1.0,4.0,67,0.00,,,0.00,Wunderground v.1.15,2013-03-01 17:53:00,
2013-03-01 12:58:00,65.0,54.6,29.98,NW,307,2.0,4.0,69,0.00,,,0.00,Wunderground v.1.15,2013-03-01 17:58:00,
2013-03-01 13:03:00,64.7,53.9,29.97,NE,55,2.0,8.0,68,0.00,,,0.00,Wunderground v.1.15,2013-03-01 18:03:00,
2013-03-01 13:08:00,64.5,53.7,29.97,NE,39,1.0,8.0,68,0.00,,,0.00,Wunderground v.1.15,2013-03-01 18:08:00,
2013-03-01 13:13:00,64.4,53.6,29.97,NNE,27,1.0,5.0,68,0.00,,,0.00,Wunderground v.1.15,2013-03-01 18:13:00,
2013-03-01 13:18:00,64.5,54.1,29.96,West,276,0.0,5.0,69,0.00,,,0.00,Wunderground v.1.15,2013-03-01 18:18:00,
2013-03-01 13:23:00,64.7,53.9,29.97,NW,322,3.0,4.0,68,0.00,,,0.00,Wunderground v.1.15,2013-03-01 18:23:00,
2013-03-01 13:28:00,65.0,54.6,29.96,NE,50,1.0,4.0,69,0.00,,,0.00,Wunderground v.1.15,2013-03-01 18:28:00,
2013-03-01 13:33:00,65.1,53.5,29.96,NNE,27,0.0,8.0,66,0.00,,,0.00,Wunderground v.1.15,2013-03-01 18:33:00,
2013-03-01 13:39:00,64.9,53.7,29.95,NNE,15,1.0,8.0,67,0.00,,,0.00,Wunderground v.1.15,2013-03-01 18:39:00,
2013-03-01 13:44:00,65.0,53.4,29.95,NW,321,0.0,5.0,66,0.00,,,0.00,Wunderground v.1.15,2013-03-01 18:44:00,
2013-03-01 13:49:00,65.1,53.5,29.95,North,357,1.0,5.0,66,0.00,,,0.00,Wunderground v.1.15,2013-03-01 18:49:00,
2013-03-01 13:54:00,65.0,53.4,29.95,WNW,284,1.0,4.0,66,0.00,,,0.00,Wunderground v.1.15,2013-03-01 18:54:00,
2013-03-01 13:59:00,64.9,53.3,29.95,WNW,303,2.0,4.0,66,0.00,,,0.00,Wunderground v.1.15,2013-03-01 18:59:00,
2013-03-01 14:04:00,64.7,53.1,29.95,NNW,342,1.0,3.0,66,0.00,,,0.00,Wunderground v.1.15,2013-03-01 19:04:00,
2013-03-01 14:09:00,64.7,53.5,29.95,East,85,0.0,5.0,67,0.00,,,0.00,Wunderground v.1.15,2013-03-01 19:09:00,
2013-03-01 14:14:00,64.7,53.9,29.94,NW,320,3.0,5.0,68,0.00,,,0.00,Wunderground v.1.15,2013-03-01 19:14:00,
2013-03-01 14:19:00,64.6,53.8,29.94,WNW,291,1.0,5.0,68,0.00,,,0.00,Wunderground v.1.15,2013-03-01 19:19:00,
2013-03-01 14:24:00,64.4,53.6,29.94,NNE,16,0.0,5.0,68,0.00,,,0.00,Wunderground v.1.15,2013-03-01 19:24:00,
2013-03-01 14:29:00,64.4,53.6,29.94,North,358,1.0,5.0,68,0.00,,,0.00,Wunderground v.1.15,2013-03-01 19:29:00,
2013-03-01 14:34:00,64.4,53.6,29.94,North,359,2.0,3.0,68,0.00,,,0.00,Wunderground v.1.15,2013-03-01 19:34:00,
2013-03-01 14:39:00,64.4,54.0,29.94,NNE,12,0.0,3.0,69,0.00,,,0.00,Wunderground v.1.15,2013-03-01 19:39:00,
2013-03-01 14:44:00,64.5,54.5,29.94,WNW,286,0.0,3.0,70,0.00,,,0.00,Wunderground v.1.15,2013-03-01 19:44:00,
2013-03-01 14:49:00,64.6,54.6,29.94,NNW,334,2.0,3.0,70,0.00,,,0.00,Wunderground v.1.15,2013-03-01 19:49:00,
2013-03-01 14:54:00,64.7,54.7,29.94,West,259,3.0,3.0,70,0.00,,,0.00,Wunderground v.1.15,2013-03-01 19:54:00,
2013-03-01 14:59:00,64.7,54.7,29.94,West,267,4.0,6.0,70,0.00,,,0.00,Wunderground v.1.15,2013-03-01 19:59:00,
2013-03-01 15:04:00,64.7,54.3,29.93,West,274,1.0,3.0,69,0.00,,,0.00,Wunderground v.1.15,2013-03-01 20:04:00,
2013-03-01 15:09:00,64.5,54.1,29.93,WNW,285,2.0,4.0,69,0.00,,,0.00,Wunderground v.1.15,2013-03-01 20:09:00,
2013-03-01 15:14:00,64.4,54.0,29.93,WNW,295,1.0,5.0,69,0.00,,,0.00,Wunderground v.1.15,2013-03-01 20:14:00,
2013-03-01 15:19:00,64.4,54.8,29.93,WNW,286,0.0,5.0,71,0.00,,,0.00,Wunderground v.1.15,2013-03-01 20:19:00,
2013-03-01 15:24:00,64.4,54.4,29.93,WNW,285,2.0,4.0,70,0.00,,,0.00,Wunderground v.1.15,2013-03-01 20:24:00,
2013-03-01 15:29:00,64.3,54.7,29.93,WNW,284,0.0,4.0,71,0.00,,,0.00,Wunderground v.1.15,2013-03-01 20:29:00,
2013-03-01 15:34:00,64.3,55.5,29.93,NNW,340,0.0,1.0,73,0.00,,,0.00,Wunderground v.1.15,2013-03-01 20:34:00,
2013-03-01 15:39:00,64.3,55.1,29.93,NE,37,0.0,1.0,72,0.00,,,0.00,Wunderground v.1.15,2013-03-01 20:39:00,
2013-03-01 15:44:00,64.3,54.7,29.92,NW,307,0.0,1.0,71,0.00,,,0.00,Wunderground v.1.15,2013-03-01 20:44:00,
2013-03-01 15:50:00,64.3,54.7,29.92,North,359,0.0,0.0,71,0.00,,,0.00,Wunderground v.1.15,2013-03-01 20:50:00,
2013-03-01 15:55:00,64.2,54.6,29.92,West,277,0.0,1.0,71,0.00,,,0.00,Wunderground v.1.15,2013-03-01 20:55:00,
2013-03-01 16:00:00,64.3,55.1,29.93,WNW,295,0.0,1.0,72,0.00,,,0.00,Wunderground v.1.15,2013-03-01 21:00:00,
2013-03-01 16:05:00,64.3,54.7,29.93,WNW,299,1.0,3.0,71,0.00,,,0.00,Wunderground v.1.15,2013-03-01 21:05:00,
2013-03-01 16:10:00,64.3,55.1,29.94,West,269,0.0,3.0,72,0.00,,,0.00,Wunderground v.1.15,2013-03-01 21:10:00,
2013-03-01 16:15:00,64.2,54.6,29.94,West,263,1.0,4.0,71,0.00,,,0.00,Wunderground v.1.15,2013-03-01 21:15:00,
2013-03-01 16:19:00,64.2,55.0,29.94,WNW,285,0.0,4.0,72,0.00,,,0.00,Wunderground v.1.15,2013-03-01 21:19:00,
2013-03-01 16:24:00,64.1,54.9,29.94,WNW,288,2.0,4.0,72,0.00,,,0.00,Wunderground v.1.15,2013-03-01 21:24:00,
2013-03-01 16:29:00,63.9,54.7,29.94,NE,34,0.0,4.0,72,0.00,,,0.00,Wunderground v.1.15,2013-03-01 21:29:00,
2013-03-01 16:34:00,63.8,54.6,29.94,NNW,328,1.0,3.0,72,0.00,,,0.00,Wunderground v.1.15,2013-03-01 21:34:00,
2013-03-01 16:40:00,63.4,55.0,29.94,WNW,286,0.0,3.0,74,0.00,,,0.00,Wunderground v.1.15,2013-03-01 21:40:00,
2013-03-01 16:45:00,63.2,55.5,29.94,NNE,26,0.0,1.0,76,0.00,,,0.00,Wunderground v.1.15,2013-03-01 21:45:00,
2013-03-01 16:50:00,62.9,54.9,29.94,North,11,0.0,2.0,75,0.00,,,0.00,Wunderground v.1.15,2013-03-01 21:50:00,
2013-03-01 16:55:00,62.7,55.0,29.94,ENE,72,0.0,3.0,76,0.00,,,0.00,Wunderground v.1.15,2013-03-01 21:55:00,
2013-03-01 17:00:00,62.4,54.4,29.94,NNE,29,1.0,4.0,75,0.00,,,0.00,Wunderground v.1.15,2013-03-01 22:00:00,
2013-03-01 17:04:00,62.1,54.4,29.94,North,5,0.0,2.0,76,0.00,,,0.00,Wunderground v.1.15,2013-03-01 22:04:00,
2013-03-01 17:09:00,62.0,54.0,29.94,NW,325,2.0,4.0,75,0.00,,,0.00,Wunderground v.1.15,2013-03-01 22:09:00,
2013-03-01 17:14:00,61.8,54.2,29.95,NNE,30,0.0,4.0,76,0.00,,,0.00,Wunderground v.1.15,2013-03-01 22:14:00,
2013-03-01 17:19:00,61.7,53.7,29.95,WNW,293,0.0,4.0,75,0.00,,,0.00,Wunderground v.1.15,2013-03-01 22:19:00,
2013-03-01 17:25:00,61.6,53.2,29.95,NW,318,3.0,3.0,74,0.00,,,0.00,Wunderground v.1.15,2013-03-01 22:25:00,
2013-03-01 17:30:00,61.6,52.9,29.95,NW,308,0.0,1.0,73,0.00,,,0.00,Wunderground v.1.15,2013-03-01 22:30:00,
2013-03-01 17:35:00,61.6,52.9,29.95,NE,49,0.0,3.0,73,0.00,,,0.00,Wunderground v.1.15,2013-03-01 22:35:00,
2013-03-01 17:40:00,61.6,52.9,29.95,West,259,0.0,0.0,73,0.00,,,0.00,Wunderground v.1.15,2013-03-01 22:40:00,
2013-03-01 17:45:00,61.6,52.9,29.96,NNE,27,1.0,2.0,73,0.00,,,0.00,Wunderground v.1.15,2013-03-01 22:45:00,
2013-03-01 17:50:00,61.6,51.7,29.96,NNE,27,2.0,2.0,70,0.00,,,0.00,Wunderground v.1.15,2013-03-01 22:50:00,
2013-03-01 17:55:00,61.6,51.3,29.96,East,79,0.0,4.0,69,0.00,,,0.00,Wunderground v.1.15,2013-03-01 22:55:00,
2013-03-01 18:00:00,61.6,51.7,29.96,West,263,0.0,2.0,70,0.00,,,0.00,Wunderground v.1.15,2013-03-01 23:00:00,
2013-03-01 18:05:00,61.6,51.7,29.96,NE,42,0.0,5.0,70,0.00,,,0.00,Wunderground v.1.15,2013-03-01 23:05:00,
2013-03-01 18:10:00,61.6,51.3,29.97,NNW,332,1.0,2.0,69,0.00,,,0.00,Wunderground v.1.15,2013-03-01 23:10:00,
2013-03-01 18:15:00,61.6,50.9,29.97,North,352,1.0,5.0,68,0.00,,,0.00,Wunderground v.1.15,2013-03-01 23:15:00,
2013-03-01 18:20:00,61.6,50.9,29.97,East,80,0.0,1.0,68,0.00,,,0.00,Wunderground v.1.15,2013-03-01 23:20:00,
2013-03-01 18:25:00,61.6,50.9,29.97,NNW,348,2.0,2.0,68,0.00,,,0.00,Wunderground v.1.15,2013-03-01 23:25:00,
2013-03-01 18:30:00,61.6,50.5,29.97,NW,325,0.0,2.0,67,0.00,,,0.00,Wunderground v.1.15,2013-03-01 23:30:00,
2013-03-01 18:35:00,61.6,50.5,29.97,NNE,25,0.0,3.0,67,0.00,,,0.00,Wunderground v.1.15,2013-03-01 23:35:00,
2013-03-01 18:40:00,61.6,50.5,29.98,NNE,22,0.0,2.0,67,0.00,,,0.00,Wunderground v.1.15,2013-03-01 23:40:00,
2013-03-01 18:45:00,61.5,50.4,29.98,NW,316,0.0,2.0,67,0.00,,,0.00,Wunderground v.1.15,2013-03-01 23:45:00,
2013-03-01 18:50:00,61.4,50.3,29.98,NNE,15,0.0,0.0,67,0.00,,,0.00,Wunderground v.1.15,2013-03-01 23:50:00,
2013-03-01 18:55:00,61.4,50.3,29.97,NNE,13,0.0,5.0,67,0.00,,,0.00,Wunderground v.1.15,2013-03-01 23:55:00,
2013-03-01 19:00:00,61.4,50.3,29.98,North,8,0.0,0.0,67,0.00,,,0.00,Wunderground v.1.15,2013-03-02 00:00:00,
2013-03-01 19:05:00,61.4,50.3,29.98,North,8,0.0,3.0,67,0.00,,,0.00,Wunderground v.1.15,2013-03-02 00:05:00,
2013-03-01 19:10:00,61.4,50.7,29.98,NW,307,4.0,6.0,68,0.00,,,0.00,Wunderground v.1.15,2013-03-02 00:10:00,
2013-03-01 19:15:00,61.5,50.4,29.98,NE,41,0.0,6.0,67,0.00,,,0.00,Wunderground v.1.15,2013-03-02 00:15:00,
2013-03-01 19:20:00,61.5,50.4,29.99,NE,36,1.0,1.0,67,0.00,,,0.00,Wunderground v.1.15,2013-03-02 00:20:00,
2013-03-01 19:25:00,61.5,50.8,29.99,North,356,0.0,1.0,68,0.00,,,0.00,Wunderground v.1.15,2013-03-02 00:25:00,
2013-03-01 19:30:00,61.5,50.4,29.98,North,10,1.0,5.0,67,0.00,,,0.00,Wunderground v.1.15,2013-03-02 00:30:00,
2013-03-01 19:35:00,61.6,50.9,29.99,WNW,298,0.0,5.0,68,0.00,,,0.00,Wunderground v.1.15,2013-03-02 00:35:00,
2013-03-01 19:40:00,61.6,50.5,29.99,North,8,1.0,1.0,67,0.00,,,0.00,Wunderground v.1.15,2013-03-02 00:40:00,
2013-03-01 19:45:00,61.6,50.5,29.99,WSW,249,0.0,3.0,67,0.00,,,0.00,Wunderground v.1.15,2013-03-02 00:45:00,
2013-03-01 19:50:00,61.7,51.0,29.99,NNE,15,1.0,3.0,68,0.00,,,0.00,Wunderground v.1.15,2013-03-02 00:50:00,
2013-03-01 19:55:00,61.6,50.1,29.99,North,5,0.0,6.0,66,0.00,,,0.00,Wunderground v.1.15,2013-03-02 00:55:00,
2013-03-01 20:00:00,61.4,50.7,29.99,NNW,338,0.0,1.0,68,0.00,,,0.00,Wunderground v.1.15,2013-03-02 01:00:00,
2013-03-01 20:05:00,61.4,50.7,29.99,North,10,1.0,2.0,68,0.00,,,0.00,Wunderground v.1.15,2013-03-02 01:05:00,
2013-03-01 20:10:00,61.3,49.8,29.99,North,353,0.0,3.0,66,0.00,,,0.00,Wunderground v.1.15,2013-03-02 01:10:00,
2013-03-01 20:15:00,61.2,49.7,30.00,WNW,283,0.0,3.0,66,0.00,,,0.00,Wunderground v.1.15,2013-03-02 01:15:00,
2013-03-01 20:20:00,61.2,49.7,30.00,NNW,335,1.0,1.0,66,0.00,,,0.00,Wunderground v.1.15,2013-03-02 01:20:00,
2013-03-01 20:25:00,61.1,50.1,30.00,WNW,282,0.0,4.0,67,0.00,,,0.00,Wunderground v.1.15,2013-03-02 01:25:00,
2013-03-01 20:30:00,61.1,49.7,30.00,NNW,331,1.0,2.0,66,0.00,,,0.00,Wunderground v.1.15,2013-03-02 01:30:00,
2013-03-01 20:35:00,61.1,50.1,30.00,NW,320,1.0,5.0,67,0.00,,,0.00,Wunderground v.1.15,2013-03-02 01:35:00,
2013-03-01 20:40:00,61.0,50.0,29.99,NE,47,0.0,1.0,67,0.00,,,0.00,Wunderground v.1.15,2013-03-02 01:40:00,
2013-03-01 20:45:00,60.9,50.3,30.00,West,273,1.0,3.0,68,0.00,,,0.00,Wunderground v.1.15,2013-03-02 01:45:00,
2013-03-01 20:50:00,60.9,49.9,30.00,WNW,294,1.0,3.0,67,0.00,,,0.00,Wunderground v.1.15,2013-03-02 01:50:00,
2013-03-01 20:55:00,60.9,49.9,30.00,NW,307,0.0,3.0,67,0.00,,,0.00,Wunderground v.1.15,2013-03-02 01:55:00,
2013-03-01 21:00:00,60.9,50.3,30.00,NNW,330,0.0,0.0,68,0.00,,,0.00,Wunderground v.1.15,2013-03-02 02:00:00,
2013-03-01 21:05:00,60.8,50.2,30.00,NW,304,0.0,2.0,68,0.00,,,0.00,Wunderground v.1.15,2013-03-02 02:05:00,
2013-03-01 21:10:00,60.8,50.6,30.00,NE,39,0.0,1.0,69,0.00,,,0.00,Wunderground v.1.15,2013-03-02 02:10:00,
2013-03-01 21:15:00,60.7,50.1,30.00,NW,304,2.0,2.0,68,0.00,,,0.00,Wunderground v.1.15,2013-03-02 02:15:00,
2013-03-01 21:21:00,60.7,50.1,30.00,WSW,255,1.0,3.0,68,0.00,,,0.00,Wunderground v.1.15,2013-03-02 02:21:00,
2013-03-01 21:26:00,60.5,50.7,30.00,WNW,288,1.0,5.0,70,0.00,,,0.00,Wunderground v.1.15,2013-03-02 02:26:00,
2013-03-01 21:31:00,60.2,50.4,30.00,North,358,0.0,1.0,70,0.00,,,0.00,Wunderground v.1.15,2013-03-02 02:31:00,
2013-03-01 21:36:00,60.0,50.9,30.01,WNW,295,0.0,4.0,72,0.00,,,0.00,Wunderground v.1.15,2013-03-02 02:36:00,
2013-03-01 21:41:00,59.9,50.8,30.01,NE,39,1.0,1.0,72,0.00,,,0.00,Wunderground v.1.15,2013-03-02 02:41:00,
2013-03-01 21:46:00,59.8,50.8,30.01,NE,34,0.0,4.0,72,0.00,,,0.00,Wunderground v.1.15,2013-03-02 02:46:00,
2013-03-01 21:51:00,59.8,50.8,30.01,NW,319,2.0,2.0,72,0.00,,,0.00,Wunderground v.1.15,2013-03-02 02:51:00,
2013-03-01 21:56:00,59.8,51.1,30.00,North,349,0.0,5.0,73,0.00,,,0.00,Wunderground v.1.15,2013-03-02 02:56:00,
2013-03-01 22:01:00,59.8,50.4,30.01,WNW,285,2.0,3.0,71,0.00,,,0.00,Wunderground v.1.15,2013-03-02 03:01:00,
2013-03-01 22:06:00,59.9,50.5,30.01,WNW,291,1.0,4.0,71,0.00,,,0.00,Wunderground v.1.15,2013-03-02 03:06:00,
2013-03-01 22:11:00,59.9,50.1,30.01,NW,324,0.0,3.0,70,0.00,,,0.00,Wunderground v.1.15,2013-03-02 03:11:00,
2013-03-01 22:16:00,59.8,49.6,30.01,WNW,302,5.0,6.0,69,0.00,,,0.00,Wunderground v.1.15,2013-03-02 03:16:00,
2013-03-01 22:21:00,59.8,50.0,30.01,WSW,242,0.0,1.0,70,0.00,,,0.00,Wunderground v.1.15,2013-03-02 03:21:00,
2013-03-01 22:26:00,59.8,49.6,30.01,NW,307,0.0,6.0,69,0.00,,,0.00,Wunderground v.1.15,2013-03-02 03:26:00,
2013-03-01 22:31:00,59.8,49.6,30.01,WNW,290,2.0,4.0,69,0.00,,,0.00,Wunderground v.1.15,2013-03-02 03:31:00,
2013-03-01 22:36:00,59.9,49.7,30.00,NW,322,1.0,4.0,69,0.00,,,0.00,Wunderground v.1.15,2013-03-02 03:36:00,
2013-03-01 22:41:00,59.9,49.7,30.01,NNE,13,0.0,3.0,69,0.00,,,0.00,Wunderground v.1.15,2013-03-02 03:41:00,
2013-03-01 22:46:00,59.9,48.9,30.00,NNW,336,2.0,7.0,67,0.00,,,0.00,Wunderground v.1.15,2013-03-02 03:46:00,
2013-03-01 22:51:00,59.7,48.7,30.00,West,266,2.0,4.0,67,0.00,,,0.00,Wunderground v.1.15,2013-03-02 03:51:00,
2013-03-01 22:56:00,59.7,48.7,30.00,WNW,297,1.0,5.0,67,0.00,,,0.00,Wunderground v.1.15,2013-03-02 03:56:00,
2013-03-01 23:01:00,59.6,48.6,30.00,WNW,285,0.0,2.0,67,0.00,,,0.00,Wunderground v.1.15,2013-03-02 04:01:00,
2013-03-01 23:06:00,59.5,48.5,30.00,ENE,64,0.0,6.0,67,0.00,,,0.00,Wunderground v.1.15,2013-03-02 04:06:00,
2013-03-01 23:11:00,59.4,48.4,30.01,West,278,1.0,2.0,67,0.00,,,0.00,Wunderground v.1.15,2013-03-02 04:11:00,
2013-03-01 23:16:00,59.4,48.8,30.00,NW,305,2.0,3.0,68,0.00,,,0.00,Wunderground v.1.15,2013-03-02 04:16:00,
2013-03-01 23:21:00,59.3,48.7,30.00,NE,49,1.0,5.0,68,0.00,,,0.00,Wunderground v.1.15,2013-03-02 04:21:00,
2013-03-01 23:26:00,59.3,49.1,30.00,NNE,17,0.0,5.0,69,0.00,,,0.00,Wunderground v.1.15,2013-03-02 04:26:00,
2013-03-01 23:31:00,59.3,48.7,30.01,WNW,303,5.0,5.0,68,0.00,,,0.00,Wunderground v.1.15,2013-03-02 04:31:00,
2013-03-01 23:36:00,59.3,49.1,30.00,NNW,338,0.0,5.0,69,0.00,,,0.00,Wunderground v.1.15,2013-03-02 04:36:00,
2013-03-01 23:41:00,59.2,49.4,30.00,West,276,0.0,1.0,70,0.00,,,0.00,Wunderground v.1.15,2013-03-02 04:41:00,
2013-03-01 23:46:00,59.2,49.0,30.00,WNW,290,4.0,4.0,69,0.00,,,0.00,Wunderground v.1.15,2013-03-02 04:46:00,
2013-03-01 23:51:00,59.2,49.4,30.00,WNW,300,2.0,4.0,70,0.00,,,0.00,Wunderground v.1.15,2013-03-02 04:51:00,
2013-03-01 23:56:00,59.1,49.3,30.00,West,279,3.0,5.0,70,0.00,,,0.00,Wunderground v.1.15,2013-03-02 04:56:00,